#timestamp,LO_Frequency,Hit,StdDev 
1576670415.6,286046997.3,N
1576670435.4,286046996.8,Y
1576670455.2,286047000.5,P
1576670475.1,286047000.9,N
1576670476.0,286047000.9,N
1576670495.8,286046999.7,N
1576670515.6,286047002.0,N
1576670535.5,286047002.1,N
1576670555.3,286047004.4,Y
1576670575.2,286047001.7,P
1576670595.9,286047002.5,P
1576670615.7,286047000.5,N
1576670635.6,286047001.0,N
1576670655.4,286047000.0,N
1576670675.3,286047000.0,N
1576670695.1,286047001.2,N
1576670696.0,286047001.2,N
1576670715.8,286046999.7,N
1576670735.7,286047000.4,N
1576670755.5,286047001.5,N
1576670775.4,286047003.9,Y
1576670795.2,286047003.2,P
1576670815.0,286047003.7,P
1576670815.9,286047003.7,N
1576670835.8,286047005.9,Y
1576670855.6,286047004.4,P
1576670875.5,286047001.8,N
1576670895.3,286047002.7,N
1576670915.1,286047002.4,N
1576670935.9,286047000.2,N
1576670955.7,286047000.3,N
1576670975.5,286047001.2,N
1576670995.4,286047001.0,N
1576671015.2,286046998.3,N
1576671035.0,286046996.8,N
1576671036.0,286046996.8,N
1576671055.8,286046997.0,N
1576671075.6,286046997.0,N
1576671095.5,286046999.6,N
1576671115.3,286046999.5,N
1576671135.1,286046999.1,N
1576671155.9,286047000.8,N
1576671175.7,286046999.3,N
1576671195.6,286046998.3,N
1576671215.4,286046999.0,N
1576671235.2,286046998.1,N
1576671255.1,286046998.2,N
1576671256.0,286046998.2,N
1576671275.8,286046999.4,N
1576671295.6,286046996.9,N
1576671315.5,286046996.8,N
1576671335.3,286046995.4,N
1576671355.2,286046995.7,N
1576671375.9,286046994.0,N
1576671395.7,286046994.2,N
1576671415.6,286046991.7,Y
1576671435.4,286046996.4,P
1576671455.2,286046996.0,P
1576671475.1,286046995.9,P
1576671476.0,286046995.9,Y
1576671495.8,286046996.5,P
1576671515.7,286046997.0,P
1576671535.5,286046999.4,P
1576671555.3,286046999.4,N
1576671575.2,286046997.1,N
1576671595.0,286046999.5,N
1576671595.9,286046999.5,N
1576671615.8,286046998.1,N
1576671635.6,286047000.7,N
1576671655.4,286047001.2,N
1576671675.3,286047001.0,N
1576671695.1,286047000.1,N
1576671715.8,286047000.9,N
1576671735.7,286047000.6,N
1576671755.5,286047002.4,N
1576671775.4,286047000.2,N
1576671795.2,286047000.7,N
1576671815.0,286047000.3,N
1576671815.9,286047000.3,N
1576671835.8,286047001.9,N
1576671855.6,286047002.4,N
1576671875.4,286047001.6,N
1576671895.3,286047000.7,N
1576671915.1,286046999.9,N
1576671935.9,286047002.7,N
1576671955.7,286047002.1,N
1576671975.5,286047001.3,N
1576671995.4,286047001.6,N
1576672015.2,286047003.0,N
1576672035.0,286047004.4,N
1576672035.9,286047004.4,N
1576672055.8,286047001.4,N
1576672075.6,286047004.0,N
1576672095.5,286047001.7,N
1576672115.3,286047001.4,N
1576672135.1,286047001.3,N
1576672155.9,286047003.6,N
1576672175.7,286047004.2,Y
1576672195.6,286047002.5,P
1576672215.4,286047001.6,P
1576672235.2,286047000.3,N
1576672255.1,286047002.8,Y
1576672256.0,286047002.8,P
1576672275.8,286046998.2,N
1576672295.7,286046998.1,N
1576672315.5,286047001.1,N
1576672335.3,286046996.9,N
1576672355.2,286046995.0,N
1576672375.9,286046996.2,N
1576672395.7,286046993.8,N
1576672415.6,286046995.2,N
1576672435.4,286046997.4,N
1576672455.3,286046996.7,N
1576672475.1,286046998.0,N
1576672476.0,286046998.0,N
1576672495.8,286046995.2,N
1576672515.7,286046996.6,N
1576672535.5,286046995.8,N
1576672555.3,286046996.4,N
1576672575.2,286046995.1,N
1576672595.0,286046997.1,N
1576672595.9,286046997.1,N
1576672615.8,286046997.7,N
1576672635.6,286046996.8,N
1576672655.4,286046997.0,N
1576672675.3,286046998.0,N
1576672695.1,286046993.3,Y
1576672715.8,286046998.9,P
1576672735.7,286047000.5,N
1576672755.5,286047001.3,N
1576672775.4,286047007.2,Y
1576672795.2,286047008.6,P
1576672815.0,286047006.2,N
1576672815.9,286047006.2,N
1576672835.8,286047005.3,N
1576672855.6,286047005.6,N
1576672875.5,286047004.4,N
1576672895.3,286047002.6,N
1576672915.1,286047002.0,N
1576672935.9,286047003.3,N
1576672955.7,286047003.5,N
1576672975.5,286047003.7,N
1576672995.4,286047001.6,N
1576673015.2,286047002.5,N
1576673035.1,286047001.3,N
1576673036.0,286047001.3,N
1576673055.8,286047002.5,N
1576673075.6,286047000.9,N
1576673095.5,286047001.4,N
1576673115.3,286047004.0,N
1576673135.1,286047003.6,N
1576673155.9,286047002.9,N
1576673175.7,286047003.4,N
1576673195.6,286047002.1,N
1576673215.4,286047000.2,N
1576673235.2,286046999.7,N
1576673255.1,286047002.3,N
1576673256.0,286047002.3,N
1576673275.8,286047000.7,N
1576673295.7,286046996.6,N
1576673315.5,286046995.1,N
1576673335.3,286046997.9,N
1576673355.2,286046995.0,N
1576673375.9,286046995.5,N
1576673395.7,286046997.9,N
1576673415.6,286046997.3,N
1576673435.4,286046995.0,N
1576673455.3,286046995.8,N
1576673475.1,286046991.7,N
1576673476.0,286046991.7,N
1576673495.8,286046996.2,N
1576673515.7,286046995.2,N
1576673535.5,286046995.0,N
1576673555.3,286046996.2,N
1576673575.2,286046996.0,N
1576673595.0,286046995.7,N
1576673595.9,286046995.7,N
1576673615.8,286046994.9,N
1576673635.6,286046995.9,N
1576673655.4,286046995.5,N
1576673675.3,286046996.0,N
1576673695.1,286046995.0,N
1576673715.8,286046995.9,N
1576673735.7,286046993.5,N
1576673755.5,286046994.6,N
1576673775.4,286046993.4,N
1576673795.2,286046994.5,N
1576673815.0,286046995.7,N
1576673815.9,286046995.7,N
1576673835.8,286046993.8,Y
1576673855.6,286046996.6,P
1576673875.5,286046999.1,N
1576673895.3,286046998.2,N
1576673915.1,286047001.0,N
1576673935.9,286047001.2,N
1576673955.7,286046998.2,N
1576673975.5,286046998.1,N
1576673995.4,286047000.0,N
